sat.trackr.live / text

‹ back to catalog

STARLINK-35884

NORAD 67044 · 2025-294Q

PAYLOAD ACTIVE UNKNOWN

§ Identity

Operator
Country
US
Launch date
2025-12-11
Launch site
AFETR
Launch vehicle
Mass (kg)
RCS (m²)

Purposes: comms

External: N2YO · Heavens-Above · Gunter

§ Orbital elements

Epoch: 2026-05-25T04:35:50.229312Z

Period
94.27 min
Inclination
43.0124°
Eccentricity
0.0000803
Mean motion
15.27578990 rev/d
Perigee alt
482.5 km
Apogee alt
483.6 km
Semi-major
6,861.2 km
B*
8.3231e-4
RAAN
325.6495°
Arg perigee
285.4116°
Mean anomaly
74.6648°
Rev number
2,650

§ Raw data

STARLINK-358841 67044U 25294Q   26145.19155358  .00022711  00000+0  83231-3 0  99902 67044  43.0124 325.6495 0000803 285.4116  74.6648 15.27578990 26500

JSON: /api/v1/satellites/67044 · /tle

For live sub-satellite position, see the globe view (requires WebGL).

§ Visibility from observer

Set your observer location to see the next 7 days of passes ≥ 10°. The values pass through the URL so the page stays shareable.

No JS? Fill the form by hand. The geolocation button needs JavaScript.